Skip Page Navigation
NASA JPL Caltech
NASA Logo - Jet Propulsion Laboratory + View the NASA Portal
+ Near-Earth Object (NEO) Program
Search JPL
JPL Home Earth Solar System Stars & Galaxies Technology
JPL Solar System Dynamics
BODIES ORBITS EPHEMERIDES TOOLS PHYSICAL DATA DISCOVERY FAQ SITE MAP
JPL Small-Body Database Browser
Search: [ help ]  
23980 Ogden (1999 JA124)
Classification: Main-belt Asteroid          SPK-ID: 2023980
Ephemeris | Orbit Diagram | Orbital Elements | Physical Parameters | Discovery Circumstances ]

[ show orbit diagram ]
Orbital Elements at Epoch 2457400.5 (2016-Jan-13.0) TDB
Reference: JPL 8 (heliocentric ecliptic J2000)
 Element Value Uncertainty (1-sigma)   Units 
e .1467559889060879 6.7838e-08  
a 2.399493516028054 2.026e-08 au
q 2.047353472209611 1.6167e-07 au
i 7.241497483027794 6.5392e-06 deg
node 111.2848086736883 5.7266e-05 deg
peri 250.8058080978309 6.2591e-05 deg
M 75.90551990598644 2.6564e-05 deg
tp 2457114.247916477386
(2015-Apr-01.74791648)
9.9465e-05 JED
period 1357.618657981338
3.72
1.7195e-05
4.708e-08
d
yr
n .2651701918529087 3.3584e-09 deg/d
Q 2.751633559846497 2.3233e-08 au
  Orbit Determination Parameters
   # obs. used (total)      735  
   data-arc span      14031 days (38.41 yr)  
   first obs. used      1977-07-20  
   last obs. used      2015-12-19  
   planetary ephem.      DE431  
   SB-pert. ephem.      SB431-BIG16  
   condition code      0  
   fit RMS      .57246  
   data source      ORB  
   producer      Otto Matic  
   solution date      2016-Jan-04 13:54:29  

Additional Information
 Earth MOID = 1.05563 au 
 Jupiter MOID = 2.70259 au 
 T_jup = 3.501 
[ show covariance matrix ]

Ephemeris | Orbit Diagram | Orbital Elements | Physical Parameters | Discovery Circumstances ]

Physical Parameter Table
Parameter Symbol Value Units Sigma Reference Notes
absolute magnitude H 14.3 mag n/a PDS3 (MPO 11261)  

23980 Ogden           Discovered 1999 May 14 by the Lincoln Laboratory Near-Earth Asteroid Research Team at Socorro.
Kristen Ogden mentored a finalist in the 2007 Discovery Channel Young Scientist Challenge (DCYSC), a middle school science competition. She teaches at the Mountain Ridge Junior High School, Highland, Utah.
NOTE: some special characters may not display properly (any characters within {} are an attempt to place the proper accent above a character)
Reference: 20071026/MPCPages.arcLast Updated: 2007-10-28
Ephemeris | Orbit Diagram | Orbital Elements | Physical Parameters | Discovery Circumstances ]
ABOUT SSD CREDITS/AWARDS PRIVACY/COPYRIGHT GLOSSARY LINKS
FirstGov 2016-Feb-11 00:25 UT
(server date/time)  
NASA Home Page
Site Manager:   Ryan S. Park
Webmaster  Alan B. Chamberlin